This is the latest recevied weather packets stored in our database for station/object K6CED. If no packets are shown the sender has not sent any weather packets the latest 10 day(s).
| Time | Temp. | Humidity | Pressure | Rain* | Wind** | Luminosity | Snow |
|---|---|---|---|---|---|---|---|
| 1777559661 | 11.11° C | 86% | 1015.7 hPa | 0 mm | - | 74 W/m² | - |
| 1777559359 | 11.67° C | 85% | 1015.8 hPa | 0 mm | - | 67 W/m² | - |
| 1777559055 | 11.11° C | 86% | 1015.8 hPa | 0 mm | - | 74 W/m² | - |
| 1777558750 | 11.11° C | 85% | 1015.7 hPa | 0 mm | - | 72 W/m² | - |
| 1777558446 | 11.11° C | 85% | 1015.6 hPa | 0 mm | - | 75 W/m² | - |
| 1777558142 | 10.56° C | 85% | 1015.6 hPa | 0 mm | - | 78 W/m² | - |
| 1777557839 | 10.56° C | 85% | 1015.6 hPa | 0 mm | - | 75 W/m² | - |
| 1777557536 | 10° C | 86% | 1015.6 hPa | 0 mm | - | 73 W/m² | - |
| 1777557232 | 9.44° C | 91% | 1015.6 hPa | 0 mm | - | 65 W/m² | - |
| 1777556928 | 10° C | 95% | 1015.5 hPa | 0 mm | - | 55 W/m² | - |
| 1777556624 | 9.44° C | 96% | 1015.6 hPa | 0 mm | - | 45 W/m² | - |
| 1777556319 | 9.44° C | 96% | 1015.4 hPa | 0 mm | - | 36 W/m² | - |
| 1777556015 | 9.44° C | 97% | 1015.4 hPa | 0 mm | - | 28 W/m² | - |
| 1777555709 | 9.44° C | 97% | 1015.3 hPa | 0 mm | - | 21 W/m² | - |
| 1777555406 | 9.44° C | 97% | 1015.4 hPa | 0 mm | - | 17 W/m² | - |
| 1777555103 | 10° C | 97% | 1015.5 hPa | 0 mm | - | 13 W/m² | - |
| 1777554801 | 10° C | 97% | 1015.7 hPa | 0 mm | - | 9 W/m² | - |
| 1777554497 | 10° C | 97% | 1015.7 hPa | 0 mm | - | 6 W/m² | - |
| 1777554194 | 10° C | 97% | 1015.5 hPa | 0 mm | - | 4 W/m² | - |
| 1777553891 | 10° C | 97% | 1015.5 hPa | 0 mm | - | 2 W/m² | - |
| 1777553587 | 10.56° C | 97% | 1015.4 hPa | 0 mm | - | 1 W/m² | - |
| 1777553283 | 10° C | 97% | 1015.6 hPa | 0 mm | - | 0 W/m² | - |
| 1777552980 | 10° C | 97% | 1015.5 hPa | 0 mm | - | 0 W/m² | - |
| 1777552679 | 10° C | 97% | 1015.4 hPa | 0 mm | - | 0 W/m² | - |
| 1777552377 | 10° C | 97% | 1015.4 hPa | 0 mm | - | 0 W/m² | - |
* Rain latest hour (hover to see other rain measurements)
** Current wind speed in m/s (hover to see current wind gust speed)